Flight Track Log - Related Links

Times and Time Zones

All times are in EDT time to prevent confusion due to time zone crossing. See the SWA1187 flight status page for this flight to view local times or setup timezone preferences in your user account.

Time Position Orientation Groundspeed Altitude Reporting Facility
EDT Latitude Longitude Course Direction KTS MPH feet Rate Location/Type
Sun 07:03:33 AM 44.9167 -93.2333 353° North 186 214 3,500  Level Minneapolis TRACON
Sun 07:04:00 AM 44.9392 -93.2375 353° North 200 230 4,600 3,448 Climbing Minneapolis Center
Sun 07:05:00 AM 44.9531 -93.1525 77° East 244 281 8,500 4,000 Climbing Minneapolis Center
Sun 07:06:00 AM 44.9214 -93.0467 113° Southeast 300 345 12,600 4,200 Climbing Minneapolis Center
Sun 07:07:00 AM 44.8722 -92.9317 121° Southeast 338 389 16,900 4,066 Climbing Minneapolis Center
Sun 07:08:01 AM 44.8203 -92.8122 121° Southeast 353 406 20,800 3,025 Climbing Minneapolis Center
Sun 07:09:01 AM 44.7656 -92.6861 121° Southeast 372 428 23,000 1,100 Climbing Minneapolis Center
Sun 07:10:01 AM 44.7097 -92.5586 122° Southeast 382 440 23,000 500 Level Minneapolis Center
Sun 07:11:01 AM 44.6542 -92.4317 122° Southeast 382 440 24,000 1,736 Climbing Minneapolis Center
Sun 07:12:02 AM 44.5986 -92.3019 121° Southeast 386 444 26,500 2,479 Climbing Minneapolis Center
Sun 07:13:02 AM 44.5522 -92.1675 116° Southeast 385 443 29,000 1,250 Climbing Minneapolis Center
Sun 07:14:02 AM 44.5069 -92.0336 115° Southeast 382 440 29,000  Level Minneapolis Center
Sun 07:15:02 AM 44.4597 -91.8994 116° Southeast 384 442 29,000  Level Minneapolis Center
Sun 07:16:03 AM 44.4139 -91.7658 116° Southeast 383 441 29,000  Level Minneapolis Center
Sun 07:17:27 AM 44.3583 -91.6078 116° Southeast 380 437 29,000  Level Minneapolis Center
Sun 07:18:27 AM 44.3022 -91.4481 116° Southeast 382 440 29,000  Level Minneapolis Center
Sun 07:19:28 AM 44.2553 -91.3167 116° Southeast 382 440 29,000  Level Minneapolis Center
Sun 07:20:28 AM 44.2075 -91.1817 116° Southeast 382 440 29,000  Level Minneapolis Center
Sun 07:21:28 AM 44.1614 -91.0519 116° Southeast 379 436 29,000  Level Minneapolis Center
Sun 07:22:29 AM 44.1156 -90.9244 117° Southeast 373 429 29,000  Level Minneapolis Center
Sun 07:23:29 AM 44.0689 -90.7942 116° Southeast 377 434 29,000  Level Minneapolis Center
Sun 07:24:29 AM 44.0219 -90.6633 116° Southeast 380 437 29,000  Level Minneapolis Center
Sun 07:25:29 AM 43.9697 -90.5169 116° Southeast 379 436 29,000  Level Minneapolis Center
Sun 07:26:30 AM 43.9228 -90.3856 116° Southeast 380 437 29,000  Level Minneapolis Center
Sun 07:27:30 AM 43.8747 -90.2561 117° Southeast 378 435 29,000  Level Minneapolis Center
Sun 07:28:31 AM 43.8225 -90.1281 119° Southeast 380 437 29,000  Level Minneapolis Center
Sun 07:29:31 AM 43.7753 -89.9978 117° Southeast 379 436 29,000  Level Minneapolis Center
Sun 07:30:31 AM 43.7283 -89.8664 116° Southeast 381 438 29,000 -496 Level Minneapolis Center
Sun 07:31:32 AM 43.6803 -89.7378 117° Southeast 378 435 28,000 -1,686 Descending Minneapolis Center
Sun 07:32:32 AM 43.6328 -89.6119 118° Southeast 374 430 25,600 -2,300 Descending Minneapolis Center
Sun 07:33:32 AM 43.5853 -89.4875 118° Southeast 369 425 23,400 -2,083 Descending Minneapolis Center
Sun 07:34:33 AM 43.5394 -89.3681 118° Southeast 359 413 21,400 -1,983 Descending Minneapolis Center
Sun 07:35:33 AM 43.4958 -89.2544 118° Southeast 344 396 19,400 -1,934 Descending Minneapolis Center
Sun 07:36:34 AM 43.4531 -89.1436 118° Southeast 333 383 17,500 -1,983 Descending Minneapolis Center
Sun 07:37:34 AM 43.4111 -89.0386 119° Southeast 320 368 15,400 -1,983 Descending Minneapolis Center
Sun 07:38:35 AM 43.3714 -88.9342 118° Southeast 313 360 13,500 -1,805 Descending Minneapolis Center
Sun 07:39:47 AM 43.3258 -88.8189 118° Southeast 298 343 11,400 -1,579 Descending Chicago Center
Sun 07:40:48 AM 43.2864 -88.7186 118° Southeast 300 345 10,000 -689 Descending Chicago Center
Sun 07:41:49 AM 43.2411 -88.6006 118° Southeast 302 348 10,000  Level Chicago Center
Sun 07:42:50 AM 43.2014 -88.4997 118° Southeast 302 348 10,000 -393 Level Chicago Center
Sun 07:43:51 AM 43.1650 -88.4078 118° Southeast 281 323 9,200 -934 Descending Chicago Center
Sun 07:44:52 AM 43.1297 -88.3186 118° Southeast 268 308 8,100 -1,041 Descending Chicago Center
Sun 07:45:52 AM 43.1019 -88.2244 112° Southeast 268 308 7,100 -992 Descending Chicago Center
Sun 07:46:53 AM 43.0811 -88.1269 106° East 268 308 6,100 -1,023 Descending Chicago Center
Sun 07:47:20 AM 43.0667 -88.0833 114° Southeast 258 297 5,600 -1,172 Descending KMKE
Sun 07:48:20 AM 43.0500 -87.9833 103° East 249 287 4,400 -1,300 Descending KMKE
Sun 07:49:20 AM 43.0167 -87.9000 119° Southeast 250 288 3,000 -875 Descending KMKE
Sun 07:49:56 AM 43.0086 -87.8594 105° East 247 284 3,000 -309 Level Chicago Center
Sun 07:50:57 AM 42.9806 -87.8208 135° Southeast 178 205 2,500 -836 Descending Chicago Center
Sun 07:51:58 AM 42.9550 -87.8508 221° Southwest 151 174 1,300 -1,157 Descending Chicago Center
Sun 07:52:20 AM 42.9500 -87.8833 258° West 136 157 900 -1,091 Descending KMKE

Login

Don't have an account? Register now (free) for customized features, flight alerts, and more!